Time,TemperatureF,DewpointF,PressureIn,WindDirection,WindDirectionDegrees,WindSpeedMPH,WindSpeedGustMPH,Humidity,HourlyPrecipIn,Conditions,Clouds,dailyrainin,SoftwareType,DateUTC
2014-04-18 00:02:00,41.9,37.0,30.42,WNW,283,0.0,0.0,84,0.00,,,0.00,weatherlink.com 1.10,2014-04-18 04:02:00,
2014-04-18 00:17:00,41.8,38.0,30.42,WNW,283,0.0,0.0,86,0.00,,,0.00,weatherlink.com 1.10,2014-04-18 04:17:00,
2014-04-18 00:32:00,42.0,37.0,30.42,WNW,283,0.0,1.0,81,0.00,,,0.00,weatherlink.com 1.10,2014-04-18 04:32:00,
2014-04-18 00:47:00,42.5,38.0,30.41,WNW,283,0.0,0.0,84,0.00,,,0.00,weatherlink.com 1.10,2014-04-18 04:47:00,
2014-04-18 01:02:00,41.9,36.0,30.41,WNW,283,0.0,0.0,80,0.00,,,0.00,weatherlink.com 1.10,2014-04-18 05:02:00,
2014-04-18 01:17:00,42.4,37.0,30.41,WNW,283,0.0,0.0,82,0.00,,,0.00,weatherlink.com 1.10,2014-04-18 05:17:00,
2014-04-18 01:32:00,42.1,37.0,30.41,WNW,284,0.0,1.0,83,0.00,,,0.00,weatherlink.com 1.10,2014-04-18 05:32:00,
2014-04-18 01:47:00,42.7,36.0,30.41,WNW,283,0.0,1.0,76,0.00,,,0.00,weatherlink.com 1.10,2014-04-18 05:47:00,
2014-04-18 02:02:00,42.9,37.0,30.40,WNW,282,0.0,0.0,80,0.00,,,0.00,weatherlink.com 1.10,2014-04-18 06:02:00,
2014-04-18 02:17:00,42.3,38.0,30.39,WNW,283,0.0,1.0,86,0.00,,,0.00,weatherlink.com 1.10,2014-04-18 06:17:00,
2014-04-18 02:32:00,42.1,38.0,30.39,WNW,283,0.0,1.0,84,0.00,,,0.00,weatherlink.com 1.10,2014-04-18 06:32:00,
2014-04-18 02:47:00,42.5,39.0,30.39,WNW,282,0.0,1.0,86,0.00,,,0.00,weatherlink.com 1.10,2014-04-18 06:47:00,
2014-04-18 03:02:00,42.5,39.0,30.39,WNW,282,0.0,1.0,87,0.00,,,0.00,weatherlink.com 1.10,2014-04-18 07:02:00,
2014-04-18 03:17:00,42.5,39.0,30.39,WNW,283,0.0,1.0,88,0.00,,,0.00,weatherlink.com 1.10,2014-04-18 07:17:00,
2014-04-18 03:32:00,42.7,39.0,30.39,WNW,283,0.0,1.0,87,0.00,,,0.00,weatherlink.com 1.10,2014-04-18 07:32:00,
2014-04-18 03:47:00,42.6,39.0,30.38,WNW,284,0.0,0.0,86,0.00,,,0.00,weatherlink.com 1.10,2014-04-18 07:47:00,
2014-04-18 04:02:00,42.8,39.0,30.38,WNW,283,0.0,0.0,87,0.00,,,0.00,weatherlink.com 1.10,2014-04-18 08:02:00,
2014-04-18 04:17:00,42.9,40.0,30.38,WNW,283,0.0,1.0,88,0.00,,,0.00,weatherlink.com 1.10,2014-04-18 08:17:00,
2014-04-18 04:32:00,42.6,39.0,30.38,North,1,0.0,0.0,88,0.00,,,0.00,weatherlink.com 1.10,2014-04-18 08:32:00,
2014-04-18 04:47:00,43.4,38.0,30.36,North,359,0.0,0.0,82,0.00,,,0.00,weatherlink.com 1.10,2014-04-18 08:47:00,
2014-04-18 05:02:00,43.9,40.0,30.38,North,1,0.0,1.0,86,0.00,,,0.00,weatherlink.com 1.10,2014-04-18 09:02:00,
2014-04-18 05:17:00,43.5,40.0,30.38,North,1,0.0,1.0,87,0.00,,,0.00,weatherlink.com 1.10,2014-04-18 09:17:00,
2014-04-18 05:32:00,43.6,40.0,30.39,North,360,0.0,0.0,87,0.00,,,0.00,weatherlink.com 1.10,2014-04-18 09:32:00,
2014-04-18 05:47:00,44.0,40.0,30.39,North,1,1.0,1.0,87,0.00,,,0.00,weatherlink.com 1.10,2014-04-18 09:47:00,
2014-04-18 06:02:00,44.1,41.0,30.39,North,1,0.0,1.0,87,0.00,,,0.00,weatherlink.com 1.10,2014-04-18 10:02:00,
2014-04-18 06:17:00,44.0,40.0,30.38,North,1,0.0,0.0,87,0.00,,,0.00,weatherlink.com 1.10,2014-04-18 10:17:00,
2014-04-18 06:32:00,43.9,41.0,30.38,North,360,0.0,1.0,88,0.00,,,0.00,weatherlink.com 1.10,2014-04-18 10:32:00,
2014-04-18 06:47:00,43.7,40.0,30.38,North,360,0.0,1.0,88,0.00,,,0.00,weatherlink.com 1.10,2014-04-18 10:47:00,
2014-04-18 07:02:00,44.1,41.0,30.37,North,359,0.0,1.0,87,0.00,,,0.00,weatherlink.com 1.10,2014-04-18 11:02:00,
2014-04-18 07:17:00,44.3,41.0,30.38,NNE,17,0.0,1.0,87,0.00,,,0.00,weatherlink.com 1.10,2014-04-18 11:17:00,
2014-04-18 07:32:00,44.7,41.0,30.38,NNE,17,0.0,1.0,85,0.00,,,0.00,weatherlink.com 1.10,2014-04-18 11:32:00,
2014-04-18 07:48:00,45.3,41.0,30.38,NNE,17,0.0,1.0,86,0.00,,,0.00,weatherlink.com 1.10,2014-04-18 11:48:00,
2014-04-18 08:03:00,45.4,41.0,30.39,NNE,17,0.0,0.0,85,0.00,,,0.00,weatherlink.com 1.10,2014-04-18 12:03:00,
2014-04-18 08:18:00,46.1,42.0,30.39,NNE,18,0.0,0.0,85,0.00,,,0.00,weatherlink.com 1.10,2014-04-18 12:18:00,
2014-04-18 08:33:00,46.7,43.0,30.40,NNE,18,0.0,1.0,87,0.00,,,0.00,weatherlink.com 1.10,2014-04-18 12:33:00,
2014-04-18 08:48:00,47.1,43.0,30.40,NNE,18,0.0,0.0,85,0.00,,,0.00,weatherlink.com 1.10,2014-04-18 12:48:00,
2014-04-18 09:03:00,47.6,42.0,30.40,NNE,18,0.0,0.0,82,0.00,,,0.00,weatherlink.com 1.10,2014-04-18 13:03:00,
2014-04-18 09:18:00,48.5,43.0,30.40,NNE,18,0.0,1.0,81,0.00,,,0.00,weatherlink.com 1.10,2014-04-18 13:18:00,
2014-04-18 09:33:00,49.5,44.0,30.41,NNE,17,0.0,0.0,80,0.00,,,0.00,weatherlink.com 1.10,2014-04-18 13:33:00,
2014-04-18 09:48:00,50.6,43.0,30.40,NNE,18,0.0,1.0,76,0.00,,,0.00,weatherlink.com 1.10,2014-04-18 13:48:00,
2014-04-18 10:03:00,51.3,42.0,30.40,NNE,17,0.0,1.0,70,0.00,,,0.00,weatherlink.com 1.10,2014-04-18 14:03:00,
2014-04-18 10:18:00,52.1,42.0,30.40,North,4,0.0,1.0,69,0.00,,,0.00,weatherlink.com 1.10,2014-04-18 14:18:00,
2014-04-18 10:33:00,52.6,42.0,30.42,SE,127,0.0,1.0,68,0.00,,,0.00,weatherlink.com 1.10,2014-04-18 14:33:00,
2014-04-18 10:48:00,52.6,42.0,30.41,NW,324,1.0,3.0,68,0.00,,,0.00,weatherlink.com 1.10,2014-04-18 14:48:00,
2014-04-18 11:03:00,53.3,42.0,30.40,WNW,285,2.0,3.0,66,0.00,,,0.00,weatherlink.com 1.10,2014-04-18 15:03:00,
2014-04-18 11:18:00,53.4,42.0,30.39,WNW,293,1.0,3.0,65,0.00,,,0.00,weatherlink.com 1.10,2014-04-18 15:18:00,
2014-04-18 11:33:00,53.6,42.0,30.39,NW,306,1.0,3.0,65,0.00,,,0.00,weatherlink.com 1.10,2014-04-18 15:33:00,
2014-04-18 11:48:00,54.1,42.0,30.38,West,271,0.0,2.0,65,0.00,,,0.00,weatherlink.com 1.10,2014-04-18 15:48:00,
2014-04-18 12:03:00,54.6,44.0,30.38,NW,318,0.0,1.0,67,0.00,,,0.00,weatherlink.com 1.10,2014-04-18 16:03:00,
2014-04-18 12:18:00,55.2,44.0,30.38,NNE,20,2.0,3.0,67,0.00,,,0.00,weatherlink.com 1.10,2014-04-18 16:18:00,
2014-04-18 12:33:00,55.8,44.0,30.38,NNE,26,1.0,2.0,64,0.00,,,0.00,weatherlink.com 1.10,2014-04-18 16:33:00,
2014-04-18 12:48:00,55.7,43.0,30.36,WNW,294,1.0,3.0,62,0.00,,,0.00,weatherlink.com 1.10,2014-04-18 16:48:00,
2014-04-18 13:03:00,55.7,43.0,30.36,North,359,0.0,4.0,63,0.00,,,0.00,weatherlink.com 1.10,2014-04-18 17:03:00,
2014-04-18 13:18:00,55.8,42.0,30.35,West,262,0.0,3.0,61,0.00,,,0.00,weatherlink.com 1.10,2014-04-18 17:18:00,
2014-04-18 13:33:00,55.9,43.0,30.35,NW,314,0.0,3.0,63,0.00,,,0.00,weatherlink.com 1.10,2014-04-18 17:33:00,
2014-04-18 14:03:00,56.6,44.0,30.32,NW,316,1.0,2.0,62,0.00,,,0.00,weatherlink.com 1.10,2014-04-18 18:03:00,
2014-04-18 14:18:00,57.4,43.0,30.31,NNW,340,2.0,2.0,59,0.00,,,0.00,weatherlink.com 1.10,2014-04-18 18:18:00,
2014-04-18 14:33:00,56.7,43.0,30.31,WNW,288,1.0,5.0,60,0.00,,,0.00,weatherlink.com 1.10,2014-04-18 18:33:00,
2014-04-18 14:48:00,56.8,44.0,30.30,SSE,153,0.0,2.0,62,0.00,,,0.00,weatherlink.com 1.10,2014-04-18 18:48:00,
2014-04-18 15:04:00,57.1,42.0,30.29,NNW,337,3.0,5.0,58,0.00,,,0.00,weatherlink.com 1.10,2014-04-18 19:04:00,
2014-04-18 15:19:00,56.9,42.0,30.27,North,356,1.0,4.0,58,0.00,,,0.00,weatherlink.com 1.10,2014-04-18 19:19:00,
2014-04-18 15:34:00,57.3,42.0,30.27,WSW,238,2.0,2.0,57,0.00,,,0.00,weatherlink.com 1.10,2014-04-18 19:34:00,
2014-04-18 15:49:00,56.5,43.0,30.26,NNW,341,0.0,2.0,61,0.00,,,0.00,weatherlink.com 1.10,2014-04-18 19:49:00,
2014-04-18 16:04:00,56.1,43.0,30.25,NW,314,0.0,1.0,62,0.00,,,0.00,weatherlink.com 1.10,2014-04-18 20:04:00,
2014-04-18 16:19:00,56.2,41.0,30.25,WNW,282,1.0,4.0,58,0.00,,,0.00,weatherlink.com 1.10,2014-04-18 20:19:00,
2014-04-18 16:34:00,56.1,43.0,30.24,WNW,282,0.0,2.0,62,0.00,,,0.00,weatherlink.com 1.10,2014-04-18 20:34:00,
2014-04-18 16:49:00,55.6,46.0,30.25,SW,215,0.0,1.0,69,0.00,,,0.00,weatherlink.com 1.10,2014-04-18 20:49:00,
2014-04-18 17:04:00,55.1,43.0,30.25,SE,138,1.0,1.0,65,0.00,,,0.00,weatherlink.com 1.10,2014-04-18 21:04:00,
2014-04-18 17:19:00,54.5,43.0,30.25,NNW,341,0.0,6.0,65,0.00,,,0.00,weatherlink.com 1.10,2014-04-18 21:19:00,
2014-04-18 17:34:00,53.2,45.0,30.25,SSE,149,0.0,2.0,73,0.00,,,0.00,weatherlink.com 1.10,2014-04-18 21:34:00,
2014-04-18 17:49:00,51.9,46.0,30.26,SSE,149,0.0,1.0,81,0.01,,,0.01,weatherlink.com 1.10,2014-04-18 21:49:00,
2014-04-18 18:04:00,50.6,47.0,30.26,SSE,149,0.0,0.0,86,0.02,,,0.02,weatherlink.com 1.10,2014-04-18 22:04:00,
2014-04-18 18:19:00,49.8,46.0,30.25,SSE,149,0.0,1.0,88,0.04,,,0.04,weatherlink.com 1.10,2014-04-18 22:19:00,
2014-04-18 18:34:00,49.2,47.0,30.26,SSE,149,0.0,1.0,91,0.06,,,0.06,weatherlink.com 1.10,2014-04-18 22:34:00,
2014-04-18 18:49:00,48.7,46.0,30.25,SSE,149,0.0,1.0,91,0.10,,,0.11,weatherlink.com 1.10,2014-04-18 22:49:00,
2014-04-18 19:04:00,48.1,45.0,30.25,East,89,0.0,2.0,90,0.12,,,0.14,weatherlink.com 1.10,2014-04-18 23:04:00,
2014-04-18 19:19:00,47.9,45.0,30.25,South,172,0.0,5.0,90,0.13,,,0.17,weatherlink.com 1.10,2014-04-18 23:19:00,
2014-04-18 19:34:00,47.6,45.0,30.24,North,11,1.0,4.0,91,0.15,,,0.21,weatherlink.com 1.10,2014-04-18 23:34:00,
2014-04-18 19:49:00,47.4,45.0,30.23,WNW,293,1.0,2.0,92,0.14,,,0.25,weatherlink.com 1.10,2014-04-18 23:49:00,
2014-04-18 20:04:00,47.4,45.0,30.24,NNE,22,0.0,5.0,92,0.15,,,0.29,weatherlink.com 1.10,2014-04-19 00:04:00,
2014-04-18 20:19:00,47.3,45.0,30.24,North,353,0.0,1.0,93,0.16,,,0.33,weatherlink.com 1.10,2014-04-19 00:19:00,
2014-04-18 20:34:00,47.2,45.0,30.23,North,353,0.0,3.0,93,0.17,,,0.38,weatherlink.com 1.10,2014-04-19 00:34:00,
2014-04-18 20:49:00,47.4,46.0,30.22,SE,139,0.0,1.0,93,0.19,,,0.44,weatherlink.com 1.10,2014-04-19 00:49:00,
2014-04-18 21:04:00,47.6,46.0,30.22,NW,320,2.0,2.0,93,0.18,,,0.47,weatherlink.com 1.10,2014-04-19 01:04:00,